Weather History for Kelso-Longview, WA

Change the Weather History Date:

Wednesday, August 14, 2013

  Actual Average Record
Temperature  
Mean Temperature 68 °F -  
Max Temperature 80 °F 75 °F 100 °F (2010)
Min Temperature 55 °F 53 °F 51 °F (2007)
Cooling Degree Days 2    
Growing Degree Days 18 (Base 50)    
Moisture  
Dew Point 55 °F    
Average Humidity 73    
Maximum Humidity 88    
Minimum Humidity 37    
Precipitation  
Precipitation 0.00 in - - ()
Sea Level Pressure  
Sea Level Pressure 29.98 in    
Wind  
Wind Speed - (North)    
Max Wind Speed -    
Max Gust Speed -    
Visibility 10 miles    
Events      
Averages and records for this station are not official NWS values.
T = Trace of Precipitation, MM = Missing Value Source: NWS Daily Summary

Daily Weather History Graph

Daily Weather History Graph

Search for Another Location

Airport:

Trip Planner

Search our weather history database for the weather conditions in past years. The results will help you decide how hot, cold, wet, or windy it might be!

Date:

Astronomy

Aug. 14, 2013 Rise Set
Actual Time 6:10 AM PDT 8:21 PM PDT
Civil Twilight 5:37 AM PDT 8:54 PM PDT
Nautical Twilight 4:56 AM PDT 9:34 PM PDT
Astronomical Twilight 4:10 AM PDT 10:19 PM PDT
Moon 2:44 PM PDT (8/14) No Moon Set
Length of Visible Light 15h 16m
Length of Day
14h 11m
First Quarter, 54% of the Moon is Illuminated
Aug 14
First Quarter
Aug 20
Full
Aug 28
Last Quarter
Sep 5
New
Sep 12
First Quarter

Hourly Weather History & Observations

Time (PDT) Temp. Heat Index Dew Point Humidity Pressure Visibility Wind Dir Wind Speed Gust Speed Precip Events Conditions
12:15 AM 60.8 °F - 53.6 °F 77% 29.99 in 10.0 mi North - - N/A   Clear
12:35 AM 60.8 °F - 53.6 °F 77% 29.99 in 10.0 mi North - - N/A   Clear
12:55 AM 60.8 °F - 53.6 °F 77% 29.99 in 10.0 mi North - - N/A   Clear
1:15 AM 59.0 °F - 53.6 °F 82% 29.98 in 10.0 mi North - - N/A   Clear
1:35 AM 57.2 °F - 53.6 °F 88% 29.99 in 10.0 mi North - - N/A   Clear
1:55 AM 57.2 °F - 51.8 °F 82% 29.99 in 10.0 mi North - - N/A   Clear
2:15 AM 57.2 °F - 51.8 °F 82% 29.99 in 10.0 mi North - - N/A   Clear
2:35 AM 57.2 °F - 51.8 °F 82% 29.99 in 10.0 mi North - - N/A   Clear
2:55 AM 55.4 °F - 51.8 °F 88% 29.99 in 10.0 mi North - - N/A   Clear
3:15 AM 55.4 °F - 51.8 °F 88% 30.00 in 10.0 mi North - - N/A   Clear
3:35 AM 55.4 °F - 51.8 °F 88% 30.00 in 10.0 mi North - - N/A   Clear
3:55 AM 55.4 °F - 50.0 °F 82% 30.00 in 10.0 mi North - - N/A   Clear
4:15 AM 55.4 °F - 50.0 °F 82% 29.99 in 10.0 mi North - - N/A   Clear
4:35 AM 55.4 °F - 51.8 °F 88% 30.00 in 10.0 mi North - - N/A   Clear
4:55 AM 55.4 °F - 51.8 °F 88% 29.99 in 10.0 mi North - - N/A   Clear
5:15 AM 55.4 °F - 51.8 °F 88% 29.99 in 10.0 mi North - - N/A   Clear
5:35 AM 55.4 °F - 50.0 °F 82% 29.99 in 10.0 mi North - - N/A   Clear
5:55 AM 55.4 °F - 51.8 °F 88% 29.99 in 10.0 mi North - - N/A   Clear
6:15 AM 55.4 °F - 50.0 °F 82% 30.00 in 10.0 mi North - - N/A   Clear
6:35 AM 55.4 °F - 50.0 °F 82% 30.00 in 10.0 mi North - - N/A   Clear
6:55 AM 55.4 °F - 50.0 °F 82% 30.00 in 10.0 mi North - - N/A   Clear
7:15 AM 57.2 °F - 51.8 °F 82% 29.99 in 10.0 mi North - - N/A   Clear
7:35 AM 57.2 °F - 51.8 °F 82% 29.99 in 10.0 mi North - - N/A   Clear
7:55 AM 57.2 °F - 51.8 °F 82% 29.99 in 10.0 mi North - - N/A   Clear
8:15 AM 59.0 °F - 51.8 °F 77% 30.00 in 10.0 mi North - - N/A   Clear
8:35 AM 60.8 °F - 53.6 °F 77% 30.00 in 10.0 mi North - - N/A   Clear
8:55 AM 60.8 °F - 53.6 °F 77% 30.00 in 10.0 mi North - - N/A   Clear
9:15 AM 62.6 °F - 53.6 °F 72% 29.99 in 10.0 mi North - - N/A   Clear
9:35 AM 62.6 °F - 53.6 °F 72% 30.01 in 10.0 mi North - - N/A   Clear
9:55 AM 64.4 °F - 53.6 °F 68% 29.99 in 10.0 mi North - - N/A   Clear
10:15 AM 66.2 °F - 55.4 °F 68% 29.98 in 10.0 mi North - - N/A   Clear
10:35 AM 68.0 °F - 55.4 °F 64% 29.99 in 10.0 mi North - - N/A   Clear
10:55 AM 69.8 °F - 55.4 °F 60% 29.98 in 10.0 mi North - - N/A   Clear
11:15 AM 71.6 °F - 55.4 °F 57% 29.98 in 10.0 mi North - - N/A   Clear
11:35 AM 73.4 °F - 57.2 °F 57% 29.98 in 10.0 mi North - - N/A   Clear
11:55 AM 75.2 °F - 57.2 °F 53% 29.97 in 10.0 mi North - - N/A   Clear
12:55 PM 78.8 °F - 55.4 °F 44% 29.96 in 10.0 mi North - - N/A   Clear
1:15 PM - - - N/A% 29.96 in 10.0 mi North - - N/A   Clear
1:35 PM - - - N/A% 29.96 in 10.0 mi North - - N/A   Clear
1:55 PM - - - N/A% 29.96 in 10.0 mi North - - N/A   Clear
2:15 PM 78.8 °F - 55.4 °F 44% 29.96 in 10.0 mi North - - N/A   Clear
2:35 PM 80.6 °F 80.3 °F 53.6 °F 39% 29.96 in 10.0 mi North - - N/A   Clear
2:55 PM 80.6 °F 80.3 °F 53.6 °F 39% 29.96 in 10.0 mi North - - N/A   Clear
3:15 PM - - - N/A% 29.96 in 10.0 mi North - - N/A   Clear
3:35 PM - - - N/A% 29.95 in 10.0 mi North - - N/A   Clear
3:55 PM 80.6 °F - 51.8 °F 37% 29.95 in 10.0 mi North - - N/A   Clear
4:15 PM 77.0 °F - 59.0 °F 54% 29.96 in 10.0 mi North - - N/A   Clear
4:35 PM 73.4 °F - 55.4 °F 53% 29.97 in 10.0 mi North - - N/A   Clear
4:55 PM 73.4 °F - 55.4 °F 53% 29.97 in 10.0 mi North - - N/A   Partly Cloudy
5:15 PM 71.6 °F - 55.4 °F 57% 29.98 in 10.0 mi North - - N/A   Partly Cloudy
5:35 PM 71.6 °F - 55.4 °F 57% 29.97 in 10.0 mi North - - N/A   Scattered Clouds
5:55 PM 69.8 °F - 57.2 °F 64% 29.97 in 10.0 mi North - - N/A   Mostly Cloudy
6:15 PM 69.8 °F - 57.2 °F 64% 29.98 in 10.0 mi North - - N/A   Scattered Clouds
6:35 PM 69.8 °F - 57.2 °F 64% 29.98 in 10.0 mi North - - N/A   Mostly Cloudy
6:55 PM 68.0 °F - 55.4 °F 64% 29.98 in 10.0 mi North - - N/A   Mostly Cloudy
7:15 PM 66.2 °F - 55.4 °F 68% 29.99 in 10.0 mi North - - N/A   Overcast
7:35 PM 66.2 °F - 57.2 °F 73% 29.99 in 10.0 mi North - - N/A   Overcast
7:55 PM 66.2 °F - 57.2 °F 73% 29.98 in 10.0 mi North - - N/A   Mostly Cloudy
8:15 PM 64.4 °F - 57.2 °F 77% 29.97 in 10.0 mi North - - N/A   Mostly Cloudy
8:35 PM 64.4 °F - 57.2 °F 77% 29.98 in 10.0 mi North - - N/A   Mostly Cloudy
8:55 PM 64.4 °F - 57.2 °F 77% 29.98 in 10.0 mi North - - N/A   Partly Cloudy
9:15 PM 64.4 °F - 57.2 °F 77% 29.98 in 10.0 mi North - - N/A   Mostly Cloudy
9:35 PM 64.4 °F - 59.0 °F 83% 29.99 in 10.0 mi North - - N/A   Mostly Cloudy
9:55 PM 64.4 °F - 59.0 °F 83% 29.99 in 10.0 mi North - - N/A   Scattered Clouds
10:15 PM 64.4 °F - 59.0 °F 83% 29.98 in 10.0 mi North - - N/A   Partly Cloudy
10:35 PM 64.4 °F - 59.0 °F 83% 29.98 in 10.0 mi North - - N/A   Mostly Cloudy
10:55 PM 64.4 °F - 59.0 °F 83% 29.97 in 10.0 mi North - - N/A   Mostly Cloudy
11:15 PM 64.4 °F - 59.0 °F 83% 29.98 in 10.0 mi North - - N/A   Mostly Cloudy
11:35 PM 64.4 °F - 59.0 °F 83% 29.98 in 10.0 mi North - - N/A   Scattered Clouds
11:55 PM 64.4 °F - 59.0 °F 83% 29.98 in 10.0 mi North - - N/A   Mostly Cloudy